Location: Newark
(40.3500°N, 15.2333°E)
Time: 17:22:41
(UTC+00:00)

Altair - Pass Details

Date: 21 January 2020
Orbit: 1502 x 1682 km, 47.2° (Epoch: 25 February)

Event Time Altitude Azimuth Distance (km) Brightness Sun altitude
Rises 09:27:13 0° 248° (WSW) 4,899 10.1 25.1°
Reaches altitude 10° 09:30:22 10° 250° (WSW) 3,925 9.7 25.3°
Maximum altitude 09:40:32 78° 337° (NNW) 1,718 8.1 26.2°
Drops below altitude 10° 09:50:42 10° 64° (ENE) 3,924 9.7 26.9°
Sets 09:53:52 0° 66° (ENE) 4,898 10.1 27.1°
